Weather History for Colorado Springs, CO

Change the Weather History Date:

Monday, September 30, 2013

  Actual Average Record
Temperature  
Mean Temperature 67 °F 55 °F  
Max Temperature 84 °F 69 °F 84 °F (1957)
Min Temperature 50 °F 41 °F 25 °F (1985)
Degree Days  
Heating Degree Days 0 10  
Month to date heating degree days 73 160  
Since 1 July heating degree days 83 190  
Cooling Degree Days 2 0  
Month to date cooling degree days 92 36  
Year to date cooling degree days 694 454  
Growing Degree Days 16 (Base 50)    
Moisture  
Dew Point 29 °F    
Average Humidity 29    
Maximum Humidity 42    
Minimum Humidity 15    
Precipitation  
Precipitation 0.00 in 0.02 in 1.08 in (1959)
Month to date precipitation 4.80 1.19  
Year to date precipitation 18.46 14.98  
Snow  
Snow 0.00 in 0.00 in 9.40 in (1959)
Month to date snowfall T 0.2  
Since 1 July snowfall T 0.2  
Since 1 September snowfall T 0.2  
Snow Depth 0.00 in    
Sea Level Pressure  
Sea Level Pressure 29.75 in    
Wind  
Wind Speed 10 mph (NE)    
Max Wind Speed 25 mph    
Max Gust Speed 38 mph    
Visibility 10 miles    
Events      
T = Trace of Precipitation, MM = Missing Value Source: NWS Daily Summary

Daily Weather History Graph

Daily Weather History Graph

Search for Another Location

Airport:

Trip Planner

Search our weather history database for the weather conditions in past years. The results will help you decide how hot, cold, wet, or windy it might be!

Date:

Astronomy

Sep. 30, 2013 Rise Set
Actual Time 6:54 AM MDT 6:42 PM MDT
Civil Twilight 6:27 AM MDT 7:09 PM MDT
Nautical Twilight 5:56 AM MDT 7:39 PM MDT
Astronomical Twilight 5:25 AM MDT 8:10 PM MDT
Moon 2:35 AM MDT (9/30) 4:12 PM MDT (9/30)
Length of Visible Light 12h 41m
Length of Day
11h 48m
Waning Crescent, 18% of the Moon is Illuminated
Sep 30
Waning Crescent
Oct 4
New
Oct 11
First Quarter
Oct 18
Full
Oct 26
Last Quarter

Hourly Weather History & Observations

Time (MDT) Temp. Dew Point Humidity Pressure Visibility Wind Dir Wind Speed Gust Speed Precip Events Conditions
12:54 AM 66.9 °F 17.1 °F 15% 29.73 in 10.0 mi North 15.0 mph 25.3 mph N/A   Scattered Clouds
1:22 AM 60.8 °F 24.8 °F 25% 30.02 in 10.0 mi WNW 9.2 mph - N/A   Mostly Cloudy
1:54 AM 59.0 °F 25.0 °F 27% 29.78 in 10.0 mi West 5.8 mph - N/A   Mostly Cloudy
2:54 AM 57.9 °F 24.1 °F 27% 29.78 in 10.0 mi Variable 3.5 mph - N/A   Scattered Clouds
3:54 AM 52.0 °F 27.0 °F 38% 29.81 in 10.0 mi NNE 10.4 mph - N/A   Scattered Clouds
4:54 AM 51.1 °F 28.0 °F 41% 29.81 in 10.0 mi North 5.8 mph - N/A   Scattered Clouds
5:54 AM 50.0 °F 28.9 °F 44% 29.84 in 10.0 mi North 6.9 mph - N/A   Scattered Clouds
6:54 AM 50.0 °F 28.9 °F 44% 29.84 in 10.0 mi NNW 5.8 mph - N/A   Scattered Clouds
7:54 AM 60.1 °F 33.1 °F 36% 29.81 in 10.0 mi NNE 4.6 mph - N/A   Mostly Cloudy
8:54 AM 64.9 °F 36.0 °F 34% 29.83 in 9.0 mi Calm Calm - N/A   Mostly Cloudy
9:54 AM 69.1 °F 26.1 °F 20% 29.82 in 10.0 mi SSE 9.2 mph - N/A   Mostly Cloudy
10:54 AM 72.0 °F 25.0 °F 17% 29.78 in 10.0 mi SSE 12.7 mph - N/A   Scattered Clouds
11:54 AM 73.9 °F 27.0 °F 18% 29.75 in 10.0 mi SSE 10.4 mph - N/A   Scattered Clouds
12:54 PM 75.0 °F 28.0 °F 18% 29.69 in 10.0 mi SE 9.2 mph - N/A   Scattered Clouds
1:54 PM 78.1 °F 28.9 °F 17% 29.67 in 10.0 mi ESE 8.1 mph - N/A   Scattered Clouds
2:54 PM 82.0 °F 32.0 °F 16% 29.63 in 10.0 mi SE 11.5 mph 20.7 mph N/A   Scattered Clouds
3:54 PM 82.9 °F 32.0 °F 16% 29.63 in 10.0 mi South 18.4 mph 27.6 mph N/A   Scattered Clouds
4:54 PM 82.0 °F 30.9 °F 16% 29.63 in 10.0 mi South 19.6 mph 26.5 mph N/A   Partly Cloudy
5:54 PM 78.1 °F 33.1 °F 19% 29.66 in 10.0 mi South 15.0 mph - N/A   Partly Cloudy
6:54 PM 73.9 °F 32.0 °F 21% 29.70 in 10.0 mi SSE 13.8 mph 21.9 mph N/A   Partly Cloudy
7:54 PM 64.9 °F 34.0 °F 32% 29.71 in 10.0 mi NE 6.9 mph - N/A   Clear
8:54 PM 62.1 °F 35.1 °F 37% 29.73 in 10.0 mi North 10.4 mph - N/A   Clear
9:54 PM 64.9 °F 35.1 °F 33% 29.72 in 10.0 mi NNE 12.7 mph - N/A   Clear
10:54 PM 70.0 °F 23.0 °F 17% 29.70 in 10.0 mi NNW 16.1 mph - N/A   Clear
11:54 PM 68.0 °F 23.0 °F 18% 29.71 in 10.0 mi NW 13.8 mph - N/A   Clear